• In Austria
  • List of Countries
  • For 7 days
  • Water Temperature
  • Satellite Maps
  • Weather Map
  • News
  • Weather Widgets
  • user-avatar
    Login

    Hourly Weather Djelfa

    Today, 18 December, Monday

    Time Temperature Precipitation Wind Pressure Humidity
    00:00 +1°C° 0 mm 2 mps 669 mmHg 90%
    01:00 +1°C° 0 mm 2 mps 669 mmHg 91%
    02:00 -1°C° 0 mm 2 mps 669 mmHg 91%
    03:00 -1°C° 0 mm 2 mps 669 mmHg 91%
    04:00 -2°C° 0 mm 2 mps 668 mmHg 91%
    05:00 -2°C° 0 mm 2 mps 668 mmHg 91%
    06:00 -2°C° 0 mm 2 mps 668 mmHg 92%
    07:00 -1°C° 0 mm 2 mps 669 mmHg 85%
    08:00 +1°C° 0 mm 2 mps 669 mmHg 79%
    09:00 +2°C° 0 mm 2 mps 670 mmHg 73%
    10:00 +2°C° 0 mm 3 mps 670 mmHg 64%
    11:00 +3°C° 0 mm 3 mps 670 mmHg 55%
    12:00 +4°C° 0 mm 3 mps 670 mmHg 46%
    13:00 +5°C° 0 mm 3 mps 669 mmHg 45%
    14:00 +5°C° 0 mm 3 mps 669 mmHg 43%
    15:00 +5°C° 0 mm 3 mps 668 mmHg 41%
    16:00 +4°C° 0 mm 3 mps 668 mmHg 46%
    17:00 +3°C° 0 mm 3 mps 668 mmHg 51%
    18:00 +3°C° 0 mm 2 mps 667 mmHg 56%
    19:00 +3°C° 0 mm 2 mps 667 mmHg 58%
    20:00 +2°C° 0 mm 2 mps 667 mmHg 60%
    21:00 +2°C° 0 mm 2 mps 667 mmHg 62%
    22:00 +1°C° 0 mm 2 mps 667 mmHg 62%
    23:00 +1°C° 0 mm 2 mps 666 mmHg 62%

    Tomorrow, 19 December, Tuesday

    Time Temperature Precipitation Wind Pressure Humidity
    00:00 +1°C° 0 mm 2 mps 666 mmHg 62%
    01:00 +1°C° 0 mm 2 mps 666 mmHg 60%
    02:00 +1°C° 0 mm 2 mps 666 mmHg 58%
    03:00 +1°C° 0 mm 2 mps 666 mmHg 56%
    04:00 +1°C° 0 mm 2 mps 666 mmHg 58%
    05:00 +1°C° 0 mm 2 mps 665 mmHg 60%
    06:00 +1°C° 0 mm 2 mps 665 mmHg 62%
    07:00 +1°C° 0 mm 3 mps 666 mmHg 60%
    08:00 +2°C° 0 mm 3 mps 666 mmHg 57%
    09:00 +3°C° 0 mm 3 mps 666 mmHg 55%
    10:00 +3°C° 0 mm 3 mps 666 mmHg 52%
    11:00 +5°C° 0 mm 2 mps 666 mmHg 50%
    12:00 +5°C° 0 mm 2 mps 666 mmHg 47%
    13:00 +5°C° 0.2 mm 2 mps 666 mmHg 50%
    14:00 +5°C° 0.2 mm 2 mps 666 mmHg 53%
    15:00 +5°C° 0.2 mm 2 mps 665 mmHg 56%
    16:00 +4°C° 0.5 mm 2 mps 666 mmHg 60%
    17:00 +4°C° 0.5 mm 2 mps 666 mmHg 65%
    18:00 +4°C° 0.5 mm 2 mps 666 mmHg 69%
    19:00 +3°C° 0.3 mm 2 mps 666 mmHg 69%
    20:00 +3°C° 0.3 mm 2 mps 667 mmHg 70%
    21:00 +2°C° 0.3 mm 3 mps 667 mmHg 70%
    22:00 +2°C° 0.1 mm 3 mps 667 mmHg 71%
    23:00 +3°C° 0.1 mm 2 mps 668 mmHg 72%

    Day after tomorrow, 20 December, Wednesday

    Time Temperature Precipitation Wind Pressure Humidity
    00:00 +2°C° 0.1 mm 2 mps 668 mmHg 73%
    01:00 +2°C° 0 mm 2 mps 668 mmHg 75%
    02:00 +2°C° 0 mm 2 mps 668 mmHg 76%
    03:00 +1°C° 0 mm 2 mps 668 mmHg 78%
    04:00 +1°C° 0 mm 2 mps 668 mmHg 79%
    05:00 -1°C° 0 mm 2 mps 668 mmHg 80%
    06:00 -1°C° 0 mm 2 mps 668 mmHg 82%
    07:00 +1°C° 0 mm 2 mps 668 mmHg 78%
    08:00 +2°C° 0 mm 2 mps 669 mmHg 75%
    09:00 +2°C° 0 mm 2 mps 669 mmHg 71%
    10:00 +2°C° 0 mm 3 mps 669 mmHg 67%
    11:00 +4°C° 0 mm 3 mps 669 mmHg 62%
    12:00 +5°C° 0 mm 4 mps 669 mmHg 58%
    13:00 +5°C° 0 mm 4 mps 669 mmHg 57%
    14:00 +5°C° 0 mm 5 mps 669 mmHg 55%
    15:00 +4°C° 0 mm 6 mps 669 mmHg 54%
    16:00 +3°C° 0 mm 5 mps 669 mmHg 59%
    17:00 +3°C° 0 mm 5 mps 669 mmHg 64%
    18:00 +3°C° 0 mm 4 mps 669 mmHg 69%
    19:00 +1°C° 0 mm 4 mps 669 mmHg 75%
    20:00 +1°C° 0 mm 4 mps 669 mmHg 80%
    21:00 +1°C° 0 mm 3 mps 670 mmHg 86%
    22:00 +1°C° 0 mm 3 mps 670 mmHg 88%
    23:00 +1°C° 0 mm 3 mps 670 mmHg 90%

    21 December, Thursday

    Time Temperature Precipitation Wind Pressure Humidity
    00:00 0°C° 0 mm 3 mps 670 mmHg 92%
    01:00 0°C° 0 mm 3 mps 670 mmHg 92%
    02:00 0°C° 0 mm 3 mps 669 mmHg 92%
    03:00 0°C° 0 mm 3 mps 669 mmHg 93%
    04:00 0°C° 0 mm 3 mps 669 mmHg 93%
    05:00 0°C° 0 mm 3 mps 670 mmHg 93%
    06:00 0°C° 0 mm 3 mps 670 mmHg 93%
    07:00 0°C° 0 mm 4 mps 670 mmHg 88%
    08:00 +1°C° 0 mm 4 mps 671 mmHg 84%
    09:00 +1°C° 0 mm 4 mps 671 mmHg 79%
    10:00 +2°C° 0 mm 5 mps 671 mmHg 74%
    11:00 +3°C° 0 mm 5 mps 671 mmHg 69%
    12:00 +4°C° 0 mm 6 mps 671 mmHg 64%
    13:00 +4°C° 0.1 mm 6 mps 671 mmHg 65%
    14:00 +4°C° 0.1 mm 7 mps 671 mmHg 66%
    15:00 +4°C° 0.1 mm 7 mps 671 mmHg 67%
    16:00 +3°C° 0.1 mm 7 mps 671 mmHg 72%
    17:00 +3°C° 0.1 mm 7 mps 671 mmHg 76%
    18:00 +2°C° 0.1 mm 6 mps 671 mmHg 81%
    19:00 +2°C° 0 mm 6 mps 672 mmHg 84%
    20:00 +1°C° 0 mm 6 mps 672 mmHg 88%
    21:00 +1°C° 0 mm 6 mps 672 mmHg 92%
    22:00 0°C° 0 mm 5 mps 673 mmHg 92%
    23:00 0°C° 0 mm 5 mps 673 mmHg 93%

    22 December, Friday

    Time Temperature Precipitation Wind Pressure Humidity
    00:00 0°C° 0 mm 5 mps 673 mmHg 94%
    01:00 -1°C° 0 mm 5 mps 673 mmHg 94%
    02:00 -1°C° 0 mm 5 mps 672 mmHg 94%
    03:00 -1°C° 0 mm 5 mps 672 mmHg 93%
    04:00 -1°C° 0 mm 4 mps 672 mmHg 94%
    05:00 -2°C° 0 mm 4 mps 672 mmHg 94%
    06:00 -1°C° 0 mm 3 mps 672 mmHg 95%
    07:00 0°C° 0 mm 3 mps 673 mmHg 90%
    08:00 +1°C° 0 mm 3 mps 673 mmHg 85%
    09:00 +1°C° 0 mm 3 mps 674 mmHg 80%
    10:00 +1°C° 0 mm 4 mps 673 mmHg 73%
    11:00 +4°C° 0 mm 4 mps 673 mmHg 65%
    12:00 +5°C° 0 mm 4 mps 673 mmHg 57%
    13:00 +5°C° 0 mm 5 mps 673 mmHg 57%
    14:00 +5°C° 0 mm 5 mps 672 mmHg 58%
    15:00 +5°C° 0 mm 5 mps 672 mmHg 58%
    16:00 +5°C° 0 mm 5 mps 672 mmHg 63%
    17:00 +4°C° 0 mm 4 mps 672 mmHg 68%
    18:00 +3°C° 0 mm 4 mps 672 mmHg 74%
    19:00 +3°C° 0 mm 4 mps 672 mmHg 77%
    20:00 +3°C° 0 mm 4 mps 672 mmHg 80%
    21:00 +2°C° 0 mm 3 mps 672 mmHg 83%
    22:00 +2°C° 0 mm 3 mps 672 mmHg 85%
    23:00 +2°C° 0 mm 3 mps 672 mmHg 87%

    23 December, Saturday

    Time Temperature Precipitation Wind Pressure Humidity
    00:00 +1°C° 0 mm 3 mps 671 mmHg 90%
    01:00 +1°C° 0 mm 3 mps 671 mmHg 91%
    02:00 +1°C° 0 mm 3 mps 671 mmHg 92%
    03:00 +2°C° 0 mm 2 mps 671 mmHg 93%
    04:00 +1°C° 0 mm 3 mps 671 mmHg 94%
    05:00 +1°C° 0 mm 3 mps 671 mmHg 94%
    06:00 +1°C° 0 mm 3 mps 671 mmHg 95%
    07:00 +2°C° 0 mm 3 mps 671 mmHg 92%
    08:00 +3°C° 0 mm 3 mps 671 mmHg 88%
    09:00 +3°C° 0 mm 3 mps 672 mmHg 85%
    10:00 +4°C° 0 mm 3 mps 671 mmHg 79%
    11:00 +5°C° 0 mm 3 mps 671 mmHg 73%
    12:00 +6°C° 0 mm 4 mps 671 mmHg 67%
    13:00 +6°C° 0 mm 4 mps 671 mmHg 66%
    14:00 +7°C° 0 mm 4 mps 671 mmHg 66%
    15:00 +7°C° 0 mm 4 mps 670 mmHg 65%
    16:00 +7°C° 0 mm 3 mps 670 mmHg 70%
    17:00 +5°C° 0 mm 3 mps 670 mmHg 75%
    18:00 +5°C° 0 mm 2 mps 670 mmHg 80%
    19:00 +5°C° 0 mm 2 mps 670 mmHg 83%
    20:00 +4°C° 0 mm 2 mps 671 mmHg 85%
    21:00 +5°C° 0 mm 1 mps 671 mmHg 87%
    22:00 +4°C° 0 mm 1 mps 671 mmHg 88%
    23:00 +4°C° 0 mm 1 mps 670 mmHg 89%
    Show more